Hourly Data Report for October 10, 2015

All times are specified in Local Standard Time (LST). Add 1 hour to adjust for Daylight Saving Time where and when it is observed.

IQALUIT CLIMATE
NUNAVUT

63°44'50.000" N
68°32'40.000" W
33.50 m
2402592
71321
XFB

Download Data

Hourly Data (October 2015)
Hourly Data Report for October 10, 2015
Temp Definition
°C
Dew Point Temp Definition
°C
Rel Hum Definition
%
Wind Dir Definition
10's deg

Wind Spd Definition
km/h
Visibility Definition
km
Stn Press Definition
kPa
Hmdx Definition


Wind Chill Definition


Weather Definition


TIME
00:00 -2.1 -4.0 86 34 8   99.10   -5 LegendNANA
01:00 -2.5 -4.6 85 35 5   99.08   -4 LegendNANA
02:00 -3.2 -5.5 84 4 5   99.05   -5 LegendNANA
03:00 -2.4 -4.4 86 12 2   99.05   -3 LegendNANA
04:00 -1.8 -3.4 88 16 5   99.06   -4 LegendNANA
05:00 -1.9 -3.9 87 13 11   99.11   -6 LegendNANA
06:00 -1.8 -3.4 89 12 16   99.18   -7 LegendNANA
07:00 -1.9 -2.4 96 14 12   99.20   -6 LegendNANA
08:00 -1.9 -2.5 96 15 15   99.24   -7 LegendNANA
09:00 -2.0 -2.8 94 15 16   99.28   -7 LegendNANA
10:00 -1.6 -3.0 90 14 17   99.31   -7 LegendNANA
11:00 -1.3 -2.3 93 14 21   99.34   -7 LegendNANA
12:00 -0.9 -2.5 89 15 23   99.38   -7 LegendNANA
13:00 -0.7 -3.2 83 14 20   99.41   -6 LegendNANA
14:00 -0.1 -3.3 79 14 16   99.44   -5 LegendNANA
15:00 -0.9 -1.8 94 16 12   99.50   -5 LegendNANA
16:00 -0.6 -1.9 91 17 4   99.53   -2 LegendNANA
17:00 -1.2 -2.3 92 15 15   99.57   -6 LegendNANA
18:00 -0.7 -3.6 81 13 13   99.58   -5 LegendNANA
19:00 -1.2 -4.4 79 12 12   99.59   -5 LegendNANA
20:00 -1.7 -4.5 81 12 9   99.61   -5 LegendNANA
21:00 -1.8 -4.4 82 9 4   99.59   -3 LegendNANA
22:00 -1.8 -4.6 81 3 4   99.59   -3 LegendNANA
23:00 -2.1 -3.9 88 5 10   99.61   -6 LegendNANA

Notes on Data Quality.

Legend

  • E = Estimated
  • M = Missing
  • NA = Not Available
  • ‡ = Partner data that is not subject to review by the National Climate Archives
Date modified: